Location: Asheville, NC
(35.6000°N, 82.5500°W)
Time: 06:48:47
(UTC-05:00)

Vanguard 3 - Pass Details

Date: 12 December 2017
Orbit: 508 x 3264 km, 33.4° (Epoch: 18 January)

Event Time Altitude Azimuth Distance (km) Brightness Sun altitude
Rises 10:37:35 0° 206° (SSW) 4,077 11.2 26.1°
Reaches altitude 10° 10:43:07 10° 175° (S) 2,487 11.0 26.6°
Maximum altitude 10:44:43 11° 158° (SSE) 2,242 11.3 26.7°
Drops below altitude 10° 10:46:10 10° 141° (SE) 2,183 11.0 26.9°
Sets 10:49:57 0° 103° (ESE) 2,788 10.4 27.2°
